Time,TemperatureF,DewpointF,PressureIn,WindDirection,WindDirectionDegrees,WindSpeedMPH,WindSpeedGustMPH,Humidity,HourlyPrecipIn,Conditions,Clouds,dailyrainin,SoftwareType,DateUTC
2013-11-19 00:42:00,49.0,29.0,-100.00,SW,222,8.0,11.0,46,-99.99,,,-99.99,,2013-11-19 08:42:00,
2013-11-19 01:21:00,49.0,28.0,-100.00,South,181,7.0,12.0,44,-99.99,,,-99.99,,2013-11-19 09:21:00,
2013-11-19 01:43:00,47.0,28.0,-100.00,SSW,196,4.0,5.0,48,-99.99,,,-99.99,,2013-11-19 09:43:00,
2013-11-19 02:12:00,46.0,29.0,-100.00,SSW,206,5.0,7.0,52,-99.99,,,-99.99,,2013-11-19 10:12:00,
2013-11-19 02:23:00,48.0,29.0,-100.00,South,172,5.0,7.0,48,-99.99,,,-99.99,,2013-11-19 10:23:00,
2013-11-19 02:43:00,48.0,29.0,-100.00,SSE,160,7.0,16.0,47,-99.99,,,-99.99,,2013-11-19 10:43:00,
2013-11-19 03:22:00,49.0,30.0,-100.00,South,179,11.0,15.0,48,-99.99,,,-99.99,,2013-11-19 11:22:00,
2013-11-19 03:42:00,49.0,30.0,-100.00,South,185,12.0,18.0,47,-99.99,,,-99.99,,2013-11-19 11:42:00,
2013-11-19 04:42:00,48.0,30.0,-100.00,SW,215,9.0,13.0,50,-99.99,,,-99.99,,2013-11-19 12:42:00,
2013-11-19 05:11:00,48.0,30.0,-100.00,SW,229,6.0,8.0,50,-99.99,,,-99.99,,2013-11-19 13:11:00,
2013-11-19 05:21:00,48.0,30.0,-100.00,SW,229,6.0,8.0,50,-99.99,,,-99.99,,2013-11-19 13:21:00,
2013-11-19 05:42:00,47.0,30.0,-100.00,SSW,210,7.0,10.0,52,-99.99,,,-99.99,,2013-11-19 13:42:00,
2013-11-19 05:52:00,47.0,30.0,-100.00,SSW,210,7.0,10.0,52,-99.99,,,-99.99,,2013-11-19 13:52:00,
2013-11-19 06:02:00,47.0,30.0,-100.00,SSW,210,7.0,10.0,52,-99.99,,,-99.99,,2013-11-19 14:02:00,
2013-11-19 11:11:00,51.0,34.0,-100.00,WSW,250,7.0,10.0,51,-99.99,,,-99.99,,2013-11-19 19:11:00,
2013-11-19 11:21:00,51.0,34.0,-100.00,WSW,250,7.0,10.0,51,-99.99,,,-99.99,,2013-11-19 19:21:00,
2013-11-19 11:42:00,52.0,34.0,-100.00,WSW,254,5.0,6.0,50,-99.99,,,-99.99,,2013-11-19 19:42:00,
2013-11-19 12:21:00,52.0,35.0,-100.00,WSW,254,5.0,8.0,52,-99.99,,,-99.99,,2013-11-19 20:21:00,
2013-11-19 12:42:00,53.0,34.0,-100.00,West,274,5.0,7.0,49,-99.99,,,-99.99,,2013-11-19 20:42:00,
2013-11-19 13:21:00,53.0,34.0,-100.00,NW,315,3.0,5.0,49,-99.99,,,-99.99,,2013-11-19 21:21:00,
2013-11-19 13:43:00,53.0,35.0,-100.00,WSW,256,10.0,14.0,50,-99.99,,,-99.99,,2013-11-19 21:43:00,
2013-11-19 14:22:00,53.0,36.0,-100.00,WSW,251,11.0,15.0,52,-99.99,,,-99.99,,2013-11-19 22:22:00,
2013-11-19 14:42:00,53.0,36.0,-100.00,WSW,248,12.0,16.0,52,-99.99,,,-99.99,,2013-11-19 22:42:00,
2013-11-19 15:21:00,52.0,36.0,-100.00,WSW,257,5.0,8.0,55,-99.99,,,-99.99,,2013-11-19 23:21:00,
2013-11-19 15:42:00,52.0,36.0,-100.00,WSW,251,12.0,15.0,55,-99.99,,,-99.99,,2013-11-19 23:42:00,
2013-11-19 16:42:00,51.0,38.0,-100.00,WSW,257,13.0,17.0,61,-99.99,,,-99.99,,2013-11-20 00:42:00,
2013-11-19 17:21:00,50.0,38.0,-100.00,West,268,9.0,11.0,64,-99.99,,,-99.99,,2013-11-20 01:21:00,
2013-11-19 17:42:00,50.0,38.0,-100.00,West,268,12.0,15.0,62,-99.99,,,-99.99,,2013-11-20 01:42:00,
2013-11-19 18:21:00,50.0,37.0,-100.00,West,267,9.0,12.0,60,-99.99,,,-99.99,,2013-11-20 02:21:00,
2013-11-19 18:42:00,51.0,37.0,-100.00,WSW,257,8.0,11.0,59,-99.99,,,-99.99,,2013-11-20 02:42:00,
2013-11-19 18:52:00,51.0,37.0,-100.00,WSW,257,8.0,11.0,59,-99.99,,,-99.99,,2013-11-20 02:52:00,
2013-11-19 19:02:00,51.0,37.0,-100.00,WSW,257,8.0,11.0,59,-99.99,,,-99.99,,2013-11-20 03:02:00,
2013-11-19 20:43:00,50.0,37.0,-100.00,South,191,4.0,7.0,60,-99.99,,,-99.99,,2013-11-20 04:43:00,
2013-11-19 21:43:00,49.0,38.0,-100.00,SSW,196,6.0,8.0,65,-99.99,,,-99.99,,2013-11-20 05:43:00,
2013-11-19 22:12:00,48.0,38.0,-100.00,SW,216,3.0,5.0,69,-99.99,,,-99.99,,2013-11-20 06:12:00,
2013-11-19 22:42:00,48.0,39.0,-100.00,WSW,237,3.0,5.0,71,-99.99,,,-99.99,,2013-11-20 06:42:00,
2013-11-19 23:42:00,46.0,40.0,-100.00,WSW,257,2.0,3.0,78,-99.99,,,-99.99,,2013-11-20 07:42:00,